contact:dominique.lefevre@mio.osupytheas.fr, maurice.libes@osupytheas.fr, didier.mallarino@osupytheas.fr
Project:EMSO http://www.emso-fr.org/EMSO-France
Depth: 2436.0 m
Title:EMSO Ligure Ouest : Data MII capteur AQUADOPP
Date,Latitude,Longitude,X_East,Y_North,Z_Up,Amplitude_X,Amplitude_Y,Amplitude_Z,Batterie,SoundSpeed,Heading,Pitch,Roll,Pressure,TIS,Speed,Direction
, degrees North, degrees East, m.s-1, m.s-1,m.s-1, 1, 1, 1, Volt, m.s-1, degree, degree, degree, dbar, degree_C, m.s-1, degree
2020-08-20T00:04:03,42.805,6.029,0.034,-0.024,0.011,104.0,106.0,100.0,13.4,1505.2,327.2,-0.7,1.8,2470.37,13.3,0.041,125.2
2020-08-20T00:07:03,42.805,6.029,0.045,-0.033,-0.023,105.0,105.0,101.0,13.4,1505.3,324.9,-0.7,1.8,2470.368,13.31,0.055,126.3
2020-08-20T00:10:03,42.805,6.029,0.036,-0.013,0.001,105.0,105.0,101.0,13.4,1505.3,326.8,-0.7,1.8,2470.347,13.31,0.038,109.9
2020-08-20T00:13:03,42.805,6.029,0.045,-0.019,-0.002,104.0,106.0,102.0,13.4,1505.3,325.4,-0.7,1.8,2470.348,13.32,0.048,112.9
2020-08-20T00:16:03,42.805,6.029,0.036,-0.024,-0.017,105.0,106.0,101.0,13.4,1505.3,325.2,-0.7,1.8,2470.389,13.32,0.043,123.7
2020-08-20T00:19:03,42.805,6.029,0.032,-0.005,-0.024,105.0,106.0,102.0,13.4,1505.3,326.3,-0.7,1.8,2470.348,13.32,0.032,98.9
2020-08-20T00:22:03,42.805,6.029,0.048,-0.01,-0.006,105.0,107.0,101.0,13.4,1505.3,323.2,-0.7,1.8,2470.333,13.32,0.049,101.8
2020-08-20T00:25:03,42.805,6.029,0.036,0.013,0.022,104.0,106.0,102.0,13.3,1505.3,324.5,-0.7,1.8,2470.305,13.32,0.038,70.1
2020-08-20T00:28:03,42.805,6.029,0.033,-0.029,-0.022,104.0,105.0,101.0,13.4,1505.3,326.7,-0.7,1.8,2470.346,13.32,0.043,131.3
2020-08-20T00:31:03,42.805,6.029,0.038,-0.033,-0.01,104.0,106.0,102.0,13.4,1505.3,326.9,-0.7,1.8,2470.299,13.32,0.05,131.0
2020-08-20T00:34:03,42.805,6.029,0.037,-0.015,-0.025,106.0,106.0,101.0,13.3,1505.3,324.7,-0.7,1.8,2470.333,13.32,0.039,112.1
2020-08-20T00:37:03,42.805,6.029,0.045,-0.007,0.003,104.0,105.0,102.0,13.3,1505.3,324.9,-0.7,1.8,2470.325,13.32,0.045,98.8
2020-08-20T00:40:03,42.805,6.029,0.053,-0.027,0.001,105.0,105.0,101.0,13.4,1505.3,325.3,-0.7,1.8,2470.29,13.32,0.059,117.0
2020-08-20T00:43:03,42.805,6.029,0.051,0.0,0.019,103.0,106.0,102.0,13.4,1505.3,324.8,-0.7,1.8,2470.314,13.32,0.051,90.0
2020-08-20T00:46:03,42.805,6.029,0.044,-0.01,0.018,104.0,108.0,102.0,13.3,1505.3,324.9,-0.7,1.8,2470.316,13.32,0.045,102.8
2020-08-20T00:49:03,42.805,6.029,0.033,-0.022,-0.018,105.0,106.0,102.0,13.4,1505.3,326.0,-0.7,1.8,2470.301,13.32,0.039,123.7
2020-08-20T00:52:03,42.805,6.029,0.028,-0.008,-0.017,105.0,106.0,102.0,13.4,1505.3,324.9,-0.7,1.9,2470.298,13.32,0.029,105.9
2020-08-20T00:55:03,42.805,6.029,0.033,-0.02,-0.02,105.0,106.0,103.0,13.4,1505.3,327.8,-0.7,1.8,2470.254,13.32,0.038,121.2
2020-08-20T00:58:03,42.805,6.029,0.044,-0.008,-0.001,104.0,107.0,103.0,13.4,1505.3,327.2,-0.7,1.8,2470.285,13.32,0.044,100.3
2020-08-20T01:04:03,42.805,6.029,0.056,-0.023,0.017,107.0,107.0,104.0,13.4,1505.2,323.7,-0.7,1.8,2470.339,13.3,0.06,112.3
2020-08-20T01:07:03,42.805,6.029,0.043,-0.018,0.007,106.0,106.0,101.0,13.3,1505.3,325.8,-0.7,1.8,2470.34,13.31,0.046,112.7
2020-08-20T01:10:03,42.805,6.029,0.048,-0.032,0.004,104.0,107.0,103.0,13.4,1505.3,326.6,-0.7,1.8,2470.305,13.31,0.057,123.7
2020-08-20T01:13:03,42.805,6.029,0.013,-0.003,-0.003,105.0,107.0,102.0,13.4,1505.3,327.4,-0.7,1.8,2470.354,13.32,0.013,103.0
2020-08-20T01:16:03,42.805,6.029,0.076,-0.018,0.033,106.0,105.0,103.0,13.4,1505.3,325.7,-0.7,1.9,2470.275,13.32,0.078,103.3
2020-08-20T01:19:03,42.805,6.029,0.043,-0.021,-0.025,106.0,108.0,101.0,13.3,1505.3,326.6,-0.7,1.8,2470.31,13.32,0.047,116.0
2020-08-20T01:22:03,42.805,6.029,0.052,-0.03,-0.009,104.0,106.0,101.0,13.4,1505.3,323.3,-0.7,1.9,2470.303,13.32,0.06,120.0
2020-08-20T01:25:03,42.805,6.029,0.035,-0.018,-0.016,105.0,106.0,101.0,13.4,1505.3,326.9,-0.7,1.8,2470.275,13.32,0.039,117.2
2020-08-20T01:28:03,42.805,6.029,0.023,-0.009,-0.005,104.0,105.0,102.0,13.4,1505.3,324.6,-0.7,1.8,2470.276,13.32,0.024,111.4
2020-08-20T01:31:03,42.805,6.029,0.057,-0.013,-0.011,104.0,106.0,103.0,13.4,1505.3,328.3,-0.8,1.8,2470.288,13.32,0.058,102.8
2020-08-20T01:34:03,42.805,6.029,0.045,-0.014,-0.018,105.0,104.0,102.0,13.3,1505.3,324.2,-0.7,1.8,2470.276,13.32,0.047,107.3
2020-08-20T01:37:03,42.805,6.029,0.04,-0.01,0.02,105.0,106.0,101.0,13.4,1505.3,324.7,-0.7,1.8,2470.278,13.32,0.041,104.0
2020-08-20T01:40:03,42.805,6.029,0.022,-0.025,0.009,105.0,105.0,102.0,13.4,1505.3,325.2,-0.7,1.8,2470.24,13.32,0.033,138.7
2020-08-20T01:43:03,42.805,6.029,0.07,-0.025,0.029,106.0,105.0,102.0,13.4,1505.3,327.9,-0.7,1.8,2470.256,13.32,0.074,109.6
2020-08-20T01:46:03,42.805,6.029,0.044,-0.019,0.008,105.0,107.0,101.0,13.3,1505.3,327.0,-0.7,1.8,2470.293,13.32,0.047,113.4
2020-08-20T01:49:03,42.805,6.029,0.036,-0.007,-0.005,105.0,105.0,102.0,13.4,1505.3,327.9,-0.7,1.8,2470.268,13.32,0.036,101.0
2020-08-20T01:52:03,42.805,6.029,0.021,-0.012,0.0,105.0,108.0,102.0,13.4,1505.3,327.9,-0.7,1.8,2470.248,13.32,0.024,119.7
2020-08-20T01:55:03,42.805,6.029,0.039,-0.019,-0.022,104.0,106.0,102.0,13.4,1505.3,325.9,-0.7,1.8,2470.285,13.32,0.043,116.0
2020-08-20T01:58:03,42.805,6.029,0.047,0.0,0.0,105.0,106.0,101.0,13.3,1505.3,325.6,-0.7,1.8,2470.251,13.32,0.047,90.0
2020-08-20T02:04:03,42.805,6.029,0.043,-0.004,0.024,105.0,107.0,101.0,13.4,1505.2,322.9,-0.7,1.8,2470.32,13.3,0.043,95.3
2020-08-20T02:07:03,42.805,6.029,0.023,-0.017,-0.004,105.0,106.0,101.0,13.3,1505.3,326.3,-0.7,1.8,2470.289,13.31,0.028,126.5
2020-08-20T02:10:03,42.805,6.029,0.055,-0.023,0.0,105.0,106.0,100.0,13.4,1505.3,326.1,-0.7,1.8,2470.313,13.31,0.059,112.7
2020-08-20T02:13:03,42.805,6.029,0.04,-0.015,0.004,104.0,107.0,101.0,13.4,1505.3,326.3,-0.7,1.8,2470.245,13.32,0.042,110.6
2020-08-20T02:16:03,42.805,6.029,0.024,0.017,-0.006,103.0,108.0,102.0,13.4,1505.3,325.5,-0.7,1.8,2470.282,13.32,0.029,54.7
2020-08-20T02:19:03,42.805,6.029,0.031,-0.019,-0.006,104.0,106.0,101.0,13.4,1505.3,326.3,-0.7,1.8,2470.246,13.32,0.036,121.5
2020-08-20T02:22:03,42.805,6.029,0.045,-0.03,0.014,106.0,107.0,101.0,13.4,1505.3,326.7,-0.7,1.8,2470.238,13.32,0.054,123.7
2020-08-20T02:25:03,42.805,6.029,0.055,-0.021,-0.007,105.0,106.0,101.0,13.4,1505.3,327.6,-0.7,1.8,2470.233,13.32,0.058,110.9
2020-08-20T02:28:03,42.805,6.029,0.026,-0.024,0.005,104.0,107.0,102.0,13.4,1505.3,327.2,-0.7,1.8,2470.284,13.32,0.035,132.7
2020-08-20T02:31:03,42.805,6.029,0.02,-0.029,-0.042,103.0,107.0,101.0,13.4,1505.3,326.7,-0.7,1.8,2470.307,13.32,0.035,145.4
2020-08-20T02:34:03,42.805,6.029,0.043,-0.024,0.009,105.0,106.0,103.0,13.3,1505.3,324.8,-0.7,1.8,2470.248,13.32,0.049,119.2
2020-08-20T02:37:03,42.805,6.029,0.02,-0.012,0.028,105.0,106.0,102.0,13.4,1505.3,326.0,-0.7,1.8,2470.297,13.32,0.023,121.0
2020-08-20T02:40:03,42.805,6.029,0.04,0.001,-0.021,104.0,106.0,102.0,13.4,1505.3,324.2,-0.7,1.8,2470.23,13.32,0.04,88.6
2020-08-20T02:43:03,42.805,6.029,0.049,-0.003,-0.018,104.0,106.0,102.0,13.4,1505.3,324.4,-0.7,1.8,2470.254,13.32,0.049,93.5
2020-08-20T02:46:03,42.805,6.029,0.051,-0.032,0.0,103.0,107.0,101.0,13.3,1505.3,324.9,-0.7,1.8,2470.269,13.32,0.06,122.1
2020-08-20T02:49:03,42.805,6.029,0.031,-0.02,-0.01,106.0,107.0,102.0,13.3,1505.3,326.7,-0.7,1.8,2470.268,13.32,0.036,122.8
2020-08-20T02:52:03,42.805,6.029,0.058,-0.006,-0.02,105.0,108.0,102.0,13.3,1505.3,327.0,-0.7,1.8,2470.289,13.32,0.058,95.9
2020-08-20T02:55:03,42.805,6.029,0.037,-0.003,-0.01,104.0,107.0,100.0,13.4,1505.3,327.5,-0.7,1.8,2470.314,13.32,0.037,94.6
2020-08-20T02:58:03,42.805,6.029,0.041,-0.014,0.004,104.0,107.0,102.0,13.4,1505.3,327.7,-0.7,1.8,2470.259,13.32,0.043,108.9
2020-08-20T03:04:03,42.805,6.029,0.063,-0.028,-0.012,104.0,106.0,101.0,13.3,1505.2,325.4,-0.8,1.8,2470.266,13.3,0.068,114.0
2020-08-20T03:07:03,42.805,6.029,0.028,-0.013,-0.015,105.0,107.0,102.0,13.3,1505.3,326.3,-0.7,1.9,2470.257,13.31,0.03,114.9
2020-08-20T03:10:03,42.805,6.029,0.056,-0.003,-0.001,105.0,107.0,102.0,13.4,1505.3,324.2,-0.7,1.8,2470.29,13.31,0.056,93.1
2020-08-20T03:13:03,42.805,6.029,0.037,-0.028,-0.024,104.0,106.0,101.0,13.4,1505.3,325.5,-0.7,1.8,2470.287,13.32,0.046,127.1
2020-08-20T03:16:03,42.805,6.029,0.066,-0.031,0.007,104.0,106.0,102.0,13.3,1505.3,326.2,-0.7,1.8,2470.3,13.32,0.072,115.2
2020-08-20T03:19:03,42.805,6.029,0.041,-0.019,-0.021,105.0,105.0,102.0,13.4,1505.3,324.7,-0.7,1.8,2470.267,13.32,0.045,114.9
2020-08-20T03:22:03,42.805,6.029,0.038,-0.01,-0.003,105.0,107.0,101.0,13.4,1505.3,324.9,-0.7,1.9,2470.278,13.32,0.039,104.7
2020-08-20T03:25:03,42.805,6.029,0.021,-0.038,0.003,105.0,106.0,102.0,13.4,1505.3,328.1,-0.7,1.8,2470.262,13.32,0.043,151.1
2020-08-20T03:28:03,42.805,6.029,0.046,-0.015,-0.023,105.0,106.0,101.0,13.4,1505.3,328.3,-0.7,1.8,2470.25,13.32,0.048,108.1
2020-08-20T03:31:03,42.805,6.029,0.021,-0.022,0.006,105.0,107.0,102.0,13.3,1505.3,325.7,-0.7,1.8,2470.304,13.32,0.03,136.3
2020-08-20T03:34:03,42.805,6.029,0.045,-0.034,0.003,106.0,107.0,102.0,13.4,1505.3,327.1,-0.7,1.8,2470.273,13.32,0.056,127.1
2020-08-20T03:37:03,42.805,6.029,0.049,-0.021,-0.001,104.0,106.0,101.0,13.4,1505.3,327.0,-0.7,1.8,2470.29,13.32,0.053,113.2
2020-08-20T03:40:03,42.805,6.029,0.065,-0.026,-0.003,105.0,108.0,102.0,13.4,1505.3,326.3,-0.7,1.9,2470.281,13.32,0.07,111.8
2020-08-20T03:43:03,42.805,6.029,0.044,-0.022,-0.007,106.0,109.0,102.0,13.3,1505.3,325.8,-0.7,1.9,2470.279,13.32,0.049,116.6
2020-08-20T03:46:03,42.805,6.029,0.061,-0.006,0.001,105.0,106.0,100.0,13.4,1505.3,322.5,-0.7,1.8,2470.214,13.32,0.061,95.6
2020-08-20T03:49:03,42.805,6.029,0.039,-0.03,-0.002,104.0,105.0,102.0,13.4,1505.3,326.5,-0.7,1.8,2470.226,13.32,0.049,127.6
2020-08-20T03:52:03,42.805,6.029,0.055,-0.01,-0.034,104.0,107.0,101.0,13.4,1505.3,324.0,-0.7,1.8,2470.263,13.32,0.055,100.3
2020-08-20T03:55:03,42.805,6.029,0.029,-0.02,0.003,104.0,105.0,102.0,13.3,1505.3,327.7,-0.7,1.8,2470.256,13.32,0.035,124.6
2020-08-20T03:58:03,42.805,6.029,0.045,0.004,0.002,104.0,107.0,102.0,13.3,1505.3,324.2,-0.7,1.8,2470.268,13.32,0.045,84.9
2020-08-20T04:04:03,42.805,6.029,0.049,-0.018,0.009,104.0,107.0,102.0,13.3,1505.2,325.0,-0.7,1.8,2470.328,13.3,0.052,110.2
2020-08-20T04:07:03,42.805,6.029,0.038,-0.025,-0.031,104.0,107.0,101.0,13.4,1505.3,325.4,-0.7,1.8,2470.287,13.31,0.045,123.3
2020-08-20T04:10:03,42.805,6.029,0.046,-0.031,0.001,105.0,107.0,102.0,13.4,1505.3,326.3,-0.7,1.8,2470.297,13.31,0.055,124.0
2020-08-20T04:13:03,42.805,6.029,0.021,-0.008,0.0,106.0,107.0,103.0,13.3,1505.3,326.5,-0.7,1.9,2470.257,13.32,0.022,110.9
2020-08-20T04:16:03,42.805,6.029,0.05,-0.018,-0.013,105.0,106.0,102.0,13.3,1505.3,324.8,-0.7,1.8,2470.275,13.32,0.053,109.8
2020-08-20T04:19:03,42.805,6.029,0.045,-0.026,-0.003,105.0,106.0,101.0,13.4,1505.3,327.4,-0.7,1.8,2470.262,13.32,0.051,120.0
2020-08-20T04:22:03,42.805,6.029,0.062,-0.016,-0.043,105.0,106.0,102.0,13.4,1505.3,324.9,-0.7,1.8,2470.329,13.32,0.064,104.5
2020-08-20T04:25:03,42.805,6.029,0.056,-0.003,-0.025,106.0,106.0,101.0,13.3,1505.3,323.2,-0.8,1.8,2470.31,13.32,0.056,93.1
2020-08-20T04:28:03,42.805,6.029,0.061,-0.017,-0.002,105.0,105.0,102.0,13.3,1505.3,323.9,-0.7,1.8,2470.276,13.32,0.063,105.6
2020-08-20T04:31:03,42.805,6.029,0.057,-0.013,0.017,104.0,106.0,102.0,13.4,1505.3,323.6,-0.7,1.8,2470.3,13.32,0.058,102.8
2020-08-20T04:34:03,42.805,6.029,0.058,-0.022,0.004,104.0,106.0,102.0,13.4,1505.3,326.5,-0.7,1.8,2470.317,13.32,0.062,110.8
2020-08-20T04:37:03,42.805,6.029,0.046,-0.002,0.009,104.0,106.0,101.0,13.4,1505.3,324.7,-0.7,1.8,2470.343,13.32,0.046,92.5
2020-08-20T04:40:03,42.805,6.029,0.061,-0.03,-0.023,104.0,106.0,102.0,13.4,1505.3,324.7,-0.7,1.8,2470.307,13.32,0.067,116.2
2020-08-20T04:43:03,42.805,6.029,0.039,-0.018,-0.034,106.0,108.0,102.0,13.3,1505.3,326.3,-0.7,1.9,2470.304,13.32,0.042,114.8
2020-08-20T04:46:03,42.805,6.029,0.027,-0.023,0.005,103.0,107.0,102.0,13.4,1505.3,326.0,-0.7,1.8,2470.293,13.32,0.035,130.4
2020-08-20T04:49:03,42.805,6.029,0.046,-0.041,0.007,105.0,106.0,101.0,13.3,1505.3,325.4,-0.7,1.8,2470.3,13.32,0.061,131.7
2020-08-20T04:52:03,42.805,6.029,0.042,-0.022,0.007,106.0,108.0,102.0,13.3,1505.3,323.6,-0.7,1.8,2470.324,13.32,0.047,117.6
2020-08-20T04:55:03,42.805,6.029,0.045,-0.01,-0.003,105.0,107.0,100.0,13.4,1505.3,323.3,-0.7,1.8,2470.3,13.32,0.046,102.5
2020-08-20T04:58:03,42.805,6.029,0.051,-0.009,-0.011,104.0,105.0,102.0,13.4,1505.3,326.2,-0.7,1.8,2470.309,13.32,0.051,100.0
2020-08-20T05:04:03,42.805,6.029,0.023,-0.019,-0.005,104.0,106.0,100.0,13.3,1505.2,326.7,-0.7,1.9,2470.339,13.3,0.029,129.6
2020-08-20T05:07:03,42.805,6.029,0.043,-0.005,0.011,104.0,106.0,101.0,13.3,1505.3,327.7,-0.7,1.8,2470.357,13.31,0.043,96.6
2020-08-20T05:10:03,42.805,6.029,0.039,-0.003,-0.037,104.0,105.0,101.0,13.3,1505.3,326.9,-0.7,1.8,2470.336,13.31,0.039,94.4
2020-08-20T05:13:03,42.805,6.029,0.061,-0.006,-0.014,105.0,106.0,101.0,13.3,1505.3,327.9,-0.7,1.9,2470.337,13.32,0.061,95.6
2020-08-20T05:16:03,42.805,6.029,0.035,-0.004,0.025,104.0,106.0,102.0,13.4,1505.3,323.0,-0.7,1.8,2470.338,13.32,0.035,96.5
2020-08-20T05:19:03,42.805,6.029,0.043,-0.034,-0.002,105.0,107.0,101.0,13.4,1505.3,326.8,-0.7,1.8,2470.357,13.32,0.054,128.3
2020-08-20T05:22:03,42.805,6.029,0.058,-0.012,-0.01,105.0,107.0,102.0,13.4,1505.3,325.8,-0.7,1.8,2470.342,13.32,0.059,101.7
2020-08-20T05:25:03,42.805,6.029,0.039,-0.035,0.003,104.0,106.0,101.0,13.4,1505.3,326.5,-0.7,1.8,2470.389,13.32,0.052,131.9
2020-08-20T05:28:03,42.805,6.029,0.022,-0.024,-0.028,103.0,107.0,102.0,13.4,1505.3,326.0,-0.7,1.8,2470.365,13.32,0.032,137.5
2020-08-20T05:31:03,42.805,6.029,0.056,-0.001,-0.013,105.0,106.0,102.0,13.4,1505.3,324.6,-0.7,1.8,2470.311,13.32,0.056,91.0
2020-08-20T05:34:03,42.805,6.029,0.069,-0.008,0.028,104.0,107.0,101.0,13.3,1505.3,325.7,-0.7,1.8,2470.372,13.32,0.069,96.6
2020-08-20T05:37:03,42.805,6.029,0.051,-0.017,-0.033,105.0,107.0,101.0,13.4,1505.3,325.4,-0.7,1.8,2470.361,13.32,0.053,108.4
2020-08-20T05:40:03,42.805,6.029,0.059,-0.008,0.017,104.0,106.0,102.0,13.4,1505.3,327.0,-0.7,1.8,2470.339,13.32,0.059,97.7
2020-08-20T05:43:03,42.805,6.029,0.043,-0.019,-0.003,105.0,106.0,101.0,13.3,1505.3,324.6,-0.7,1.8,2470.36,13.32,0.047,113.8
2020-08-20T05:46:03,42.805,6.029,0.032,-0.013,-0.016,103.0,106.0,102.0,13.3,1505.3,327.0,-0.7,1.8,2470.356,13.32,0.034,112.1
2020-08-20T05:49:03,42.805,6.029,0.041,0.012,-0.022,103.0,107.0,101.0,13.3,1505.3,322.8,-0.7,1.8,2470.362,13.32,0.042,73.7
2020-08-20T05:52:03,42.805,6.029,0.053,-0.038,0.016,104.0,106.0,102.0,13.3,1505.3,327.2,-0.7,1.8,2470.398,13.32,0.065,125.6
2020-08-20T05:55:03,42.805,6.029,0.048,-0.031,0.013,105.0,106.0,101.0,13.3,1505.3,326.4,-0.7,1.8,2470.38,13.32,0.057,122.9
2020-08-20T05:58:03,42.805,6.029,0.069,0.0,-0.008,106.0,106.0,100.0,13.4,1505.3,326.8,-0.7,1.8,2470.416,13.32,0.068,90.0
2020-08-20T06:04:03,42.805,6.029,0.042,-0.033,-0.036,105.0,106.0,101.0,13.4,1505.2,325.2,-0.7,1.8,2470.41,13.3,0.053,128.2
2020-08-20T06:07:03,42.805,6.029,0.056,-0.037,-0.024,104.0,106.0,101.0,13.4,1505.3,325.8,-0.7,1.8,2470.452,13.31,0.067,123.5
2020-08-20T06:10:03,42.805,6.029,0.019,-0.028,-0.012,103.0,110.0,102.0,13.4,1505.3,326.3,-0.7,1.8,2470.431,13.31,0.033,145.8
2020-08-20T06:13:03,42.805,6.029,0.061,0.002,0.0,103.0,106.0,103.0,13.3,1505.3,324.4,-0.7,1.8,2470.424,13.32,0.061,88.1
2020-08-20T06:16:03,42.805,6.029,0.049,-0.007,-0.048,104.0,107.0,101.0,13.4,1505.3,325.8,-0.7,1.9,2470.436,13.32,0.049,98.1
2020-08-20T06:19:03,42.805,6.029,0.053,-0.018,0.011,105.0,107.0,101.0,13.3,1505.3,324.8,-0.7,1.8,2470.386,13.32,0.055,108.8
2020-08-20T06:22:03,42.805,6.029,0.039,-0.024,-0.008,105.0,107.0,101.0,13.3,1505.3,326.5,-0.7,1.8,2470.452,13.32,0.045,121.6
2020-08-20T06:25:03,42.805,6.029,0.056,-0.018,0.029,104.0,106.0,102.0,13.4,1505.3,325.3,-0.7,1.8,2470.438,13.32,0.058,107.8
2020-08-20T06:28:03,42.805,6.029,0.062,0.004,-0.001,103.0,106.0,101.0,13.4,1505.3,324.8,-0.7,1.8,2470.417,13.32,0.062,86.3
2020-08-20T06:31:03,42.805,6.029,0.054,-0.023,-0.018,104.0,107.0,102.0,13.4,1505.3,323.7,-0.7,1.8,2470.416,13.32,0.058,113.1
2020-08-20T06:34:03,42.805,6.029,0.036,-0.026,-0.021,104.0,106.0,101.0,13.4,1505.3,327.8,-0.7,1.8,2470.392,13.32,0.044,125.8
2020-08-20T06:37:03,42.805,6.029,0.068,-0.032,-0.004,105.0,106.0,102.0,13.4,1505.3,328.0,-0.7,1.8,2470.419,13.32,0.075,115.2
2020-08-20T06:40:03,42.805,6.029,0.078,-0.017,0.03,105.0,106.0,101.0,13.3,1505.3,326.4,-0.7,1.8,2470.405,13.32,0.079,102.3
2020-08-20T06:43:03,42.805,6.029,0.069,-0.018,-0.027,104.0,106.0,103.0,13.4,1505.3,323.1,-0.7,1.9,2470.401,13.32,0.071,104.6
2020-08-20T06:46:03,42.805,6.029,0.049,-0.018,-0.013,104.0,107.0,102.0,13.4,1505.3,323.2,-0.7,1.9,2470.443,13.32,0.052,110.2
2020-08-20T06:49:03,42.805,6.029,0.064,-0.023,-0.004,105.0,106.0,102.0,13.4,1505.3,323.4,-0.7,1.8,2470.449,13.32,0.068,109.8
2020-08-20T06:52:03,42.805,6.029,0.038,0.002,0.015,105.0,105.0,102.0,13.4,1505.3,325.9,-0.7,1.8,2470.43,13.32,0.038,87.0
2020-08-20T06:55:03,42.805,6.029,0.047,-0.01,0.033,105.0,107.0,102.0,13.4,1505.3,327.6,-0.7,1.8,2470.435,13.32,0.048,102.0
2020-08-20T06:58:03,42.805,6.029,0.058,-0.007,0.004,106.0,107.0,102.0,13.3,1505.3,327.9,-0.7,1.8,2470.388,13.32,0.058,96.9
2020-08-20T07:04:03,42.805,6.029,0.042,-0.018,-0.019,104.0,105.0,102.0,13.4,1505.2,326.7,-0.7,1.8,2470.465,13.3,0.045,113.2
2020-08-20T07:07:03,42.805,6.029,0.055,-0.038,-0.018,105.0,107.0,101.0,13.4,1505.3,324.9,-0.7,1.8,2470.468,13.31,0.066,124.6
2020-08-20T07:10:03,42.805,6.029,0.034,-0.033,-0.022,104.0,108.0,101.0,13.4,1505.3,325.0,-0.7,1.8,2470.475,13.31,0.047,134.1
2020-08-20T07:13:03,42.805,6.029,0.062,-0.035,0.009,105.0,106.0,101.0,13.4,1505.3,322.8,-0.7,1.8,2470.477,13.32,0.071,119.4
2020-08-20T07:16:03,42.805,6.029,0.039,-0.042,-0.02,104.0,106.0,101.0,13.4,1505.3,326.0,-0.7,1.8,2470.478,13.32,0.057,137.1
2020-08-20T07:19:03,42.805,6.029,0.056,-0.002,-0.003,105.0,108.0,101.0,13.4,1505.3,324.6,-0.7,1.8,2470.453,13.32,0.056,92.0
2020-08-20T07:22:03,42.805,6.029,0.057,-0.011,0.003,105.0,106.0,101.0,13.3,1505.3,324.2,-0.7,1.8,2470.424,13.32,0.058,100.9
2020-08-20T07:25:03,42.805,6.029,0.027,0.0,-0.003,106.0,105.0,102.0,13.4,1505.3,325.6,-0.7,1.8,2470.426,13.32,0.026,90.0
2020-08-20T07:28:03,42.805,6.029,0.049,-0.033,-0.002,105.0,105.0,101.0,13.4,1505.3,326.6,-0.7,1.8,2470.383,13.32,0.059,124.0
2020-08-20T07:31:03,42.805,6.029,0.057,0.0,0.007,105.0,105.0,102.0,13.4,1505.3,324.0,-0.7,1.8,2470.464,13.32,0.057,90.0
2020-08-20T07:34:03,42.805,6.029,0.054,-0.009,-0.014,106.0,106.0,101.0,13.4,1505.3,324.4,-0.7,1.8,2470.432,13.32,0.054,99.5
2020-08-20T07:37:03,42.805,6.029,0.033,-0.014,-0.038,105.0,106.0,101.0,13.4,1505.3,326.8,-0.7,1.8,2470.458,13.32,0.035,113.0
2020-08-20T07:40:03,42.805,6.029,0.044,-0.007,0.011,105.0,107.0,101.0,13.4,1505.3,323.9,-0.7,1.8,2470.49,13.32,0.044,99.0
2020-08-20T07:43:03,42.805,6.029,0.057,-0.017,-0.018,104.0,107.0,103.0,13.4,1505.3,324.5,-0.7,1.8,2470.448,13.32,0.059,106.6
2020-08-20T07:46:03,42.805,6.029,0.056,-0.026,0.0,104.0,106.0,101.0,13.4,1505.3,328.5,-0.7,1.8,2470.455,13.32,0.061,114.9
2020-08-20T07:49:03,42.805,6.029,0.048,-0.02,-0.011,105.0,107.0,102.0,13.3,1505.3,328.5,-0.7,1.9,2470.429,13.32,0.052,112.6
2020-08-20T07:52:03,42.805,6.029,0.034,-0.021,0.0,104.0,105.0,102.0,13.4,1505.3,326.9,-0.7,1.8,2470.41,13.32,0.039,121.7
2020-08-20T07:55:03,42.805,6.029,0.055,-0.039,-0.03,105.0,105.0,102.0,13.3,1505.3,327.2,-0.7,1.8,2470.432,13.32,0.067,125.3
2020-08-20T07:58:03,42.805,6.029,0.04,-0.028,-0.014,104.0,105.0,102.0,13.4,1505.3,325.3,-0.7,1.8,2470.429,13.32,0.048,125.0
2020-08-20T08:04:03,42.805,6.029,0.043,-0.012,-0.007,104.0,106.0,101.0,13.3,1505.2,324.3,-0.7,1.8,2470.47,13.3,0.044,105.6
2020-08-20T08:07:03,42.805,6.029,0.049,-0.016,-0.001,107.0,105.0,101.0,13.3,1505.3,326.8,-0.7,1.9,2470.469,13.31,0.051,108.1
2020-08-20T08:10:03,42.805,6.029,0.044,-0.021,-0.031,104.0,104.0,102.0,13.4,1505.3,326.8,-0.7,1.8,2470.449,13.31,0.048,115.5
2020-08-20T08:13:03,42.805,6.029,0.061,0.002,0.008,104.0,106.0,102.0,13.4,1505.3,323.9,-0.7,1.8,2470.474,13.32,0.061,88.1
2020-08-20T08:16:03,42.805,6.029,0.051,-0.007,-0.021,104.0,106.0,101.0,13.3,1505.3,325.2,-0.7,1.8,2470.467,13.32,0.051,97.8
2020-08-20T08:19:03,42.805,6.029,0.036,-0.008,-0.033,104.0,104.0,103.0,13.3,1505.3,325.1,-0.7,1.8,2470.441,13.32,0.036,102.5
2020-08-20T08:22:03,42.805,6.029,0.048,-0.017,-0.006,105.0,104.0,102.0,13.4,1505.3,325.9,-0.7,1.8,2470.405,13.32,0.05,109.5
2020-08-20T08:25:03,42.805,6.029,0.025,-0.014,0.011,104.0,106.0,102.0,13.3,1505.3,326.8,-0.7,1.8,2470.495,13.32,0.028,119.3
2020-08-20T08:28:03,42.805,6.029,0.058,-0.005,0.004,104.0,105.0,101.0,13.3,1505.3,322.8,-0.7,1.8,2470.465,13.32,0.058,94.9
2020-08-20T08:31:03,42.805,6.029,0.033,-0.01,-0.043,104.0,107.0,101.0,13.3,1505.3,327.1,-0.7,1.8,2470.428,13.32,0.034,106.9
2020-08-20T08:34:03,42.805,6.029,0.05,-0.011,-0.011,106.0,108.0,100.0,13.4,1505.3,325.5,-0.7,1.8,2470.454,13.32,0.051,102.4
2020-08-20T08:37:03,42.805,6.029,0.054,0.0,0.001,104.0,105.0,102.0,13.4,1505.3,325.4,-0.7,1.8,2470.411,13.32,0.053,90.0
2020-08-20T08:40:03,42.805,6.029,0.031,-0.012,0.0,105.0,106.0,101.0,13.4,1505.3,326.3,-0.7,1.8,2470.427,13.32,0.033,111.2
2020-08-20T08:43:03,42.805,6.029,0.04,-0.014,0.008,105.0,106.0,100.0,13.3,1505.3,326.3,-0.7,1.8,2470.465,13.32,0.042,109.3
2020-08-20T08:46:03,42.805,6.029,0.03,-0.01,-0.014,104.0,106.0,101.0,13.4,1505.3,324.9,-0.7,1.8,2470.438,13.32,0.031,108.4
2020-08-20T08:49:03,42.805,6.029,0.05,-0.024,-0.017,104.0,106.0,101.0,13.4,1505.3,326.7,-0.7,1.8,2470.461,13.32,0.055,115.6
2020-08-20T08:52:03,42.805,6.029,0.058,-0.014,0.02,104.0,107.0,102.0,13.3,1505.3,325.4,-0.7,1.8,2470.438,13.32,0.059,103.6
2020-08-20T08:55:03,42.805,6.029,0.043,-0.025,-0.023,105.0,106.0,102.0,13.4,1505.3,324.3,-0.7,1.9,2470.395,13.32,0.049,120.2
2020-08-20T08:58:03,42.805,6.029,0.058,-0.021,-0.007,103.0,107.0,102.0,13.4,1505.3,326.5,-0.7,1.8,2470.484,13.32,0.061,109.9
2020-08-20T09:04:03,42.805,6.029,0.035,-0.021,-0.001,105.0,105.0,101.0,13.4,1505.2,326.8,-0.7,1.8,2470.469,13.3,0.04,121.0
2020-08-20T09:07:03,42.805,6.029,0.037,-0.016,-0.027,105.0,105.0,102.0,13.3,1505.3,328.0,-0.7,1.8,2470.432,13.31,0.04,113.4
2020-08-20T09:10:03,42.805,6.029,0.035,-0.02,-0.01,104.0,106.0,102.0,13.3,1505.3,324.1,-0.7,1.8,2470.457,13.31,0.04,119.7
2020-08-20T09:13:03,42.805,6.029,0.028,-0.022,-0.004,104.0,107.0,101.0,13.4,1505.3,326.9,-0.7,1.8,2470.488,13.32,0.035,128.2
2020-08-20T09:16:03,42.805,6.029,0.047,-0.016,0.005,103.0,104.0,102.0,13.4,1505.3,325.2,-0.7,1.9,2470.409,13.32,0.049,108.8
2020-08-20T09:19:03,42.805,6.029,0.044,-0.042,-0.016,104.0,105.0,101.0,13.3,1505.3,325.7,-0.7,1.8,2470.434,13.32,0.06,133.7
2020-08-20T09:22:03,42.805,6.029,0.052,-0.002,0.016,105.0,106.0,101.0,13.4,1505.3,325.0,-0.7,1.8,2470.445,13.32,0.052,92.2
2020-08-20T09:25:03,42.805,6.029,0.056,-0.018,-0.015,104.0,106.0,101.0,13.3,1505.3,325.5,-0.7,1.8,2470.434,13.32,0.058,107.8
2020-08-20T09:28:03,42.805,6.029,0.072,-0.021,-0.023,104.0,106.0,102.0,13.4,1505.3,326.3,-0.7,1.8,2470.448,13.32,0.074,106.3
2020-08-20T09:31:03,42.805,6.029,0.036,-0.035,-0.015,104.0,107.0,101.0,13.4,1505.3,325.5,-0.7,1.8,2470.435,13.32,0.05,134.2
2020-08-20T09:34:03,42.805,6.029,0.042,-0.015,0.022,103.0,106.0,102.0,13.4,1505.3,326.3,-0.7,1.8,2470.445,13.32,0.044,109.6
2020-08-20T09:37:03,42.805,6.029,0.042,-0.004,0.009,105.0,106.0,101.0,13.3,1505.3,327.1,-0.7,1.8,2470.457,13.32,0.042,95.4
2020-08-20T09:40:03,42.805,6.029,0.032,-0.006,-0.008,105.0,105.0,102.0,13.4,1505.3,323.2,-0.7,1.8,2470.409,13.32,0.032,100.6
2020-08-20T09:43:03,42.805,6.029,0.057,0.009,0.018,104.0,105.0,101.0,13.4,1505.3,324.1,-0.7,1.8,2470.414,13.32,0.057,81.0
2020-08-20T09:46:03,42.805,6.029,0.042,-0.003,-0.002,104.0,105.0,102.0,13.4,1505.3,323.5,-0.7,1.8,2470.422,13.32,0.042,94.1
2020-08-20T09:49:03,42.805,6.029,0.062,-0.01,-0.011,104.0,106.0,103.0,13.4,1505.3,322.8,-0.7,1.8,2470.426,13.32,0.062,99.2
2020-08-20T09:52:03,42.805,6.029,0.04,-0.026,-0.02,104.0,106.0,102.0,13.3,1505.3,325.9,-0.7,1.8,2470.384,13.32,0.047,123.0
2020-08-20T09:55:03,42.805,6.029,0.051,-0.031,-0.028,105.0,106.0,101.0,13.4,1505.3,327.3,-0.7,1.8,2470.433,13.32,0.059,121.3
2020-08-20T09:58:03,42.805,6.029,0.05,-0.017,-0.018,105.0,105.0,102.0,13.4,1505.3,325.1,-0.7,1.8,2470.371,13.32,0.052,108.8